Location: Newark
(3.3223°N, 76.2348°W)
Time: 20:53:08
(UTC+00:00)

BEESAT 2 - Pass Details

Date: 27 January 2020
Orbit: 493 x 534 km, 64.9° (Epoch: 22 February)

Event Time Altitude Azimuth Distance (km) Brightness Sun altitude
Rises 23:38:10 0° 207° (SSW) 2,587 ? -5.9°
Reaches altitude 10° 23:40:19 10° 210° (SSW) 1,708 ? -6.4°
Maximum altitude 23:44:06 64° 292° (WNW) 564 ? -7.3°
Drops below altitude 10° 23:47:55 10° 14° (NNE) 1,727 ? -8.2°
Sets 23:50:07 0° 17° (NNE) 2,618 ? -8.7°
